Regional Weather Roundup
Issued by NWS Goodland, KS

Home | Current Version | Previous Version | Text Only | Print | Product List | Glossary Off
Versions: 1 2 3 4 5 6 7 8 9 10 11 12 13 14 15 16 17 18 19 20 21 22 23 24 25 26 27 28 29 30 31 32 33 34 35 36 37 38 39 40 41 42 43 44 45 46 47 48 49 50

000
ASUS43 KGLD 252108
RWRGLD

GOODLAND FORECAST AREA HOURLY WEATHER ROUNDUP
NATIONAL WEATHER SERVICE GOODLAND KS
300 PM MDT SUN JUN 25 2017

...OFFICIAL OBSERVATIONS...

CITY           SKY/WX    TMP DP  RH WIND       PRES   REMARKS
GOODLAND KS    CLOUDY    61  57  87 E15       30.32F
HILL CITY KS   CLOUDY    66  58  75 E9        30.31F
IMPERIAL NEB   MOSUNNY   70  49  47 SE15      30.31F
MCCOOK NEB     CLOUDY    73  47  39 S16       30.30F
AKRON CO       MOSUNNY   67  52  58 SE14G23   30.32F
BURLINGTON CO  PTSUNNY   69  55  60 E17G23    30.31S
LIMON CO       PTSUNNY   74  51  44 SE7       30.29F
$$

...UNOFFICIAL OBSERVATIONS...

CITY           SKY/WX    TMP DP  RH WIND       PRES   REMARKS
LENORA KS        N/A     64  32  30 MISG        N/A
NORTON KS      LGT RAIN  68  45  42 SE9       30.31S
SHARON SPRINGS   N/A     64  56  77 W8          N/A
TRENTON NEB      N/A     68  32  26 SW10        N/A
KIT CARSON CO    N/A     71  55  58 MISG        N/A
YUMA CO        CLOUDY    63  54  72 E10G17    30.32F
$$




USA.gov is the U.S. government's official web portal to all federal, state and local government web resources and services.